[[{"header":{"parameterUnit":"m.s-1","parameterCategory":1,"la1":30.2991,"la2":30.254,"lo1":-89.0895,"lo2":-89.0444,"dy":0.0017,"dx":0.0017,"nx":28,"ny":28,"refTime":"2024-07-28T21:00:00:Z","depth":0,"parameterNumber":2,"parameterNumberName":"U-component_of_WINDS"},"data":[0,0,0,0,0,0,0,0,0,0,0,0,0,0,0,0,0,0,0,0,0,0,0,0,0,0,0,0,0,0,0,0,0,0,0,0,0,0,0,0,0,0,0,0,0,0,0,0,0,0,0,0,0,0,0,0,0,0,5.6587,5.6589,0,5.6782,5.6784,5.6786,5.6718,5.6714,5.6709,5.6705,5.6909,5.6918,5.6928,0,0,0,0,0,0,0,0,0,0,0,0,0,5.6158,5.6166,5.6586,5.6589,5.6591,5.6781,5.6784,5.6787,5.6719,5.6714,5.6708,5.6703,5.6906,5.6917,5.6928,0,0,0,0,0,0,0,0,0,0,0,0,0,5.6348,5.6168,5.6586,5.658,5.6582,5.6781,5.6784,5.6788,5.672,5.6713,5.6707,5.6701,5.6902,5.6916,5.693,5.7148,0,0,5.6973,5.6979,0,0,0,0,0,0,0,0,5.6337,5.6363,5.6579,5.6581,5.6583,5.6719,5.6707,5.6908,5.6722,5.6668,5.6705,5.6698,5.6851,5.6869,5.692,5.7157,5.7166,5.6975,5.6983,5.6989,5.6993,0,0,0,0,0,0,0,5.6324,5.6355,5.6664,5.6582,5.6585,5.6569,5.6589,5.6745,5.6794,5.6672,5.6667,5.6691,5.6851,5.6907,5.6924,5.7169,5.6974,5.6987,5.6996,5.7001,5.7593,5.76,0,0,0,0,0,0,5.6309,5.6344,5.6658,5.667,5.6441,5.6582,5.6604,5.6682,5.6792,5.6802,5.6696,5.6687,5.6886,5.6908,5.6931,5.7192,5.6989,5.7003,5.7011,5.7586,5.7595,5.7603,0,0,0,0,0,0,5.63,5.6338,5.665,5.6506,5.6544,5.6596,5.6684,5.6689,5.6744,5.681,5.6819,5.6744,5.6881,5.6911,5.7094,5.7199,5.7009,5.7022,5.7578,5.7589,5.7599,5.7717,0,0,0,0,0,0,5.6288,5.6335,5.6418,5.6508,5.6552,5.6809,5.6691,5.6698,5.6769,5.6758,5.6857,5.6867,5.6879,5.7073,5.7108,5.7215,5.7033,5.7568,5.7582,5.7595,5.7704,5.7731,5.7753,0,0,0,0,0,5.6273,5.6444,5.6422,5.646,5.6657,5.6815,5.684,5.6848,5.6777,5.6861,5.6903,5.6864,5.7182,5.7092,5.7131,5.7244,5.7562,5.7579,5.7594,5.7693,5.7725,5.7753,0,0,0,0,0,0,5.6367,5.6456,5.6433,5.6638,5.6719,5.6803,5.6909,5.6883,5.6986,5.6973,5.698,5.7003,5.719,5.7235,5.7134,5.746,5.7361,5.7386,5.7423,5.7454,5.7479,5.7464,5.7045,0,0,0,0,0,5.6411,5.6531,5.6603,5.6777,5.6819,5.6857,5.6927,5.6926,5.701,5.7045,5.71,5.7185,5.7303,5.7381,5.7494,5.771,5.773,5.7807,5.7831,5.7851,5.7873,5.7989,5.8023,5.7656,5.7656,5.7655,0,0,5.6504,5.6568,5.6643,5.6798,5.686,5.6985,5.6887,5.7023,5.7116,5.7066,5.7241,5.7285,5.738,5.7579,5.767,5.7623,5.7979,5.7872,5.7887,5.7898,5.8009,5.8044,5.8075,5.7667,5.7665,5.7663,0,0,5.6737,5.6798,5.6949,5.7013,5.7109,5.7133,5.7169,5.7257,5.7284,5.7459,5.7424,5.7535,5.7739,5.7808,5.7869,5.8127,5.8095,5.8164,5.8293,5.8406,5.8435,5.8461,5.8552,5.8585,5.8185,5.8186,5.8186,0,5.6841,5.7027,5.7031,5.717,5.7238,5.7197,5.735,5.7413,5.7542,5.759,5.7535,5.7789,5.7851,5.8065,5.8128,5.818,5.8221,5.8153,5.8431,5.8456,5.8481,5.8567,5.8602,5.8193,5.8192,5.8192,5.8191,0,5.715,5.7279,5.739,5.7512,5.7594,5.774,5.7766,5.7848,5.784,5.787,5.8049,5.812,5.8246,5.8297,5.8292,5.8511,5.8479,5.8428,5.8329,5.8523,5.8605,5.8638,5.8204,5.8202,5.8199,5.8197,0,0,5.7448,5.757,5.761,5.7665,5.7767,5.7867,5.8011,5.8132,5.8202,5.8292,5.8413,5.8586,5.8538,5.8608,5.861,5.871,5.8908,5.8646,5.8648,5.8691,5.9153,5.9191,5.9229,5.8887,5.8894,5.8899,5.9145,0,5.7689,5.7939,5.7946,5.8176,5.8295,5.8257,5.8382,5.8459,5.8491,5.8597,5.8632,5.8754,5.8683,5.8725,5.8822,5.8863,5.9001,5.8846,5.9,5.9005,5.8976,5.9272,5.9313,5.9541,5.9177,5.9183,5.9187,0,5.8003,5.8101,5.8342,5.8425,5.8475,5.8588,5.8699,5.8801,5.8887,5.8903,5.898,5.8967,5.9114,5.901,5.9213,5.9107,5.9171,5.9201,5.921,5.9224,5.9107,5.9294,5.9615,5.9649,5.9237,5.9233,5.9229,0,5.8195,5.8387,5.8556,5.8604,5.8706,5.8785,5.8832,5.8911,5.8983,5.9081,5.9127,5.9242,5.9305,5.9394,5.9411,5.9335,5.9614,5.9512,5.9631,5.9631,5.9692,5.9688,6.0027,5.9734,5.9734,5.9733,5.9732,0,5.8463,5.8612,5.8643,5.8747,5.8912,5.8919,5.9083,5.9124,5.9194,5.9305,5.9281,5.9386,5.9403,5.9512,5.9527,5.9692,5.9721,5.9738,5.974,5.974,5.9738,5.9781,5.9765,5.9742,5.974,5.9738,5.9737,0,5.8706,5.8733,5.8914,5.8995,5.9018,5.9137,5.9206,5.9306,5.9334,5.9475,5.9508,5.9554,5.9681,5.9707,5.9859,5.9868,6.0064,6.0051,6.0035,6.0033,6.015,6.0138,6.0528,6.0579,6.0255,6.0258,6.026,0,5.8874,5.8988,5.908,5.9152,5.9201,5.9318,5.9391,5.9402,5.9479,5.9584,5.9671,5.9795,5.9895,6.01,6.0147,6.0262,6.0251,6.038,6.0268,6.0264,6.0251,6.0244,6.0255,6.0401,6.0404,6.0407,6.0409,0,5.9171,5.9178,5.9283,5.9394,5.9481,5.9569,5.9652,5.9713,5.9735,5.9823,5.9952,6.0029,6.0182,6.0306,6.0421,6.0469,6.0444,6.0444,6.0477,6.0478,6.0463,6.0471,6.0092,6.0435,6.0432,6.0431,6.0429,6.0428,5.9381,5.9479,5.9559,5.9677,5.974,5.9819,5.9915,5.9955,6.0062,6.0186,6.0187,6.0327,6.0409,6.0561,6.0616,6.0726,6.0686,6.0735,6.0747,6.0759,6.0769,6.0446,6.0748,6.0747,6.0746,6.0746,6.0745,0,5.9675,5.9724,5.9832,5.9949,6.0041,6.0008,6.0098,6.0178,6.0301,6.0379,6.0477,6.0625,6.0744,6.0799,6.0917,6.0994,6.0986,6.1025,6.1019,6.103,6.0799,6.0757,6.103,6.103,6.103,6.103,6.103,6.103,5.9839,6.0003,6.0019,6.0214,6.0262,6.0398,6.0453,6.0524,6.0586,6.0751,6.085,6.0884,6.0953,6.1075,6.1183,6.1196,6.124,6.1285,6.1293,6.1076,6.1047,6.1019,6.098,6.1295,6.1295,6.1515,6.1517,6.1519]},{"header":{"parameterUnit":"m.s-1","parameterCategory":1,"la1":30.2991,"la2":30.254,"lo1":-89.0895,"lo2":-89.0444,"dy":0.0017,"dx":0.0017,"nx":28,"ny":28,"refTime":"2024-07-28T21:00:00:Z","depth":0,"parameterNumber":3,"parameterNumberName":"V-component_of_WINDS"},"data":[0,0,0,0,0,0,0,0,0,0,0,0,0,0,0,0,0,0,0,0,0,0,0,0,0,0,0,0,0,0,0,0,0,0,0,0,0,0,0,0,0,0,0,0,0,0,0,0,0,0,0,0,0,0,0,0,0,0,-0.1183,-0.1183,0,-0.1193,-0.1193,-0.1193,-0.1208,-0.1208,-0.1208,-0.1209,-0.1217,-0.1217,-0.1217,0,0,0,0,0,0,0,0,0,0,0,0,0,-0.1177,-0.1177,-0.1183,-0.1183,-0.1183,-0.1193,-0.1193,-0.1193,-0.1208,-0.1208,-0.1208,-0.1209,-0.1217,-0.1217,-0.1217,0,0,0,0,0,0,0,0,0,0,0,0,0,-0.1182,-0.1177,-0.1183,-0.1192,-0.1193,-0.1193,-0.1193,-0.1193,-0.1208,-0.1208,-0.1208,-0.1209,-0.1217,-0.1217,-0.1217,-0.1209,0,0,-0.1217,-0.1217,0,0,0,0,0,0,0,0,-0.1182,-0.1182,-0.119,-0.1191,-0.1192,-0.12,-0.1194,-0.1199,-0.1208,-0.1202,-0.1209,-0.1209,-0.1211,-0.1212,-0.1212,-0.121,-0.121,-0.1217,-0.1217,-0.1217,-0.1217,0,0,0,0,0,0,0,-0.1181,-0.1182,-0.1187,-0.1191,-0.1192,-0.1195,-0.1196,-0.1195,-0.1204,-0.1202,-0.1204,-0.1205,-0.1212,-0.1212,-0.1213,-0.121,-0.1217,-0.1217,-0.1217,-0.1217,-0.1202,-0.1202,0,0,0,0,0,0,-0.118,-0.1182,-0.1187,-0.1187,-0.1188,-0.1195,-0.1196,-0.1197,-0.1204,-0.1206,-0.1204,-0.1205,-0.1212,-0.1213,-0.1213,-0.1205,-0.1217,-0.1217,-0.1217,-0.1203,-0.1202,-0.1202,0,0,0,0,0,0,-0.118,-0.118,-0.1186,-0.1185,-0.1186,-0.1195,-0.1195,-0.1197,-0.1198,-0.1206,-0.1207,-0.1204,-0.1213,-0.1213,-0.121,-0.1205,-0.1217,-0.1217,-0.1203,-0.1203,-0.1202,-0.1188,0,0,0,0,0,0,-0.1179,-0.118,-0.1177,-0.1185,-0.1186,-0.1183,-0.1195,-0.1197,-0.1198,-0.1199,-0.1205,-0.1207,-0.1213,-0.121,-0.121,-0.1205,-0.1217,-0.1204,-0.1203,-0.1202,-0.1188,-0.1187,-0.1185,0,0,0,0,0,-0.1179,-0.1172,-0.1177,-0.1177,-0.1182,-0.1183,-0.1184,-0.1192,-0.1197,-0.1194,-0.12,-0.1206,-0.1206,-0.121,-0.121,-0.1205,-0.1204,-0.1203,-0.1202,-0.1189,-0.1187,-0.1185,0,0,0,0,0,0,-0.1163,-0.1173,-0.1179,-0.1174,-0.1178,-0.1186,-0.1182,-0.1189,-0.1191,-0.1192,-0.1201,-0.1202,-0.1198,-0.1202,-0.1206,-0.1198,-0.1206,-0.1205,-0.1196,-0.1194,-0.1192,-0.1191,-0.1217,0,0,0,0,0,-0.1159,-0.1159,-0.1168,-0.1163,-0.1165,-0.1173,-0.1174,-0.118,-0.1184,-0.1185,-0.119,-0.1193,-0.1194,-0.1194,-0.1195,-0.1189,-0.1191,-0.1186,-0.1184,-0.1183,-0.1182,-0.1179,-0.1177,-0.1199,-0.1199,-0.1199,0,0,-0.1151,-0.1156,-0.1155,-0.116,-0.1163,-0.1163,-0.1174,-0.1173,-0.1173,-0.1185,-0.1183,-0.1187,-0.1191,-0.1187,-0.1185,-0.1189,-0.1176,-0.1182,-0.118,-0.118,-0.1178,-0.1176,-0.1174,-0.1198,-0.1199,-0.1199,0,0,-0.1135,-0.1139,-0.1136,-0.1139,-0.1145,-0.1151,-0.115,-0.1157,-0.1161,-0.1159,-0.1168,-0.1168,-0.1169,-0.1172,-0.1173,-0.116,-0.1167,-0.116,-0.1151,-0.1148,-0.1146,-0.1145,-0.114,-0.1139,-0.1159,-0.1159,-0.1159,0,-0.1123,-0.1123,-0.1133,-0.1132,-0.1133,-0.1145,-0.1142,-0.1145,-0.115,-0.1151,-0.1156,-0.1158,-0.1162,-0.1159,-0.1156,-0.1156,-0.1156,-0.1159,-0.1146,-0.1145,-0.1143,-0.1139,-0.1137,-0.1159,-0.1159,-0.1159,-0.1159,0,-0.1109,-0.1109,-0.1106,-0.1112,-0.1113,-0.1111,-0.112,-0.112,-0.1126,-0.1132,-0.113,-0.1135,-0.1138,-0.1138,-0.1143,-0.1136,-0.1138,-0.1144,-0.1152,-0.114,-0.1137,-0.1135,-0.1157,-0.1158,-0.1158,-0.1158,0,0,-0.1083,-0.1095,-0.1093,-0.1096,-0.1104,-0.1104,-0.1102,-0.1106,-0.1106,-0.111,-0.1109,-0.111,-0.1116,-0.1118,-0.1124,-0.1122,-0.1112,-0.1128,-0.1129,-0.1125,-0.1104,-0.1099,-0.1097,-0.1116,-0.1116,-0.1116,-0.1104,0,-0.1068,-0.1066,-0.1075,-0.1071,-0.1072,-0.1083,-0.1082,-0.1086,-0.1092,-0.1093,-0.1099,-0.11,-0.1107,-0.1109,-0.1107,-0.1113,-0.1107,-0.1114,-0.1115,-0.1115,-0.1113,-0.1095,-0.109,-0.1078,-0.1102,-0.1102,-0.1102,0,-0.1051,-0.1055,-0.105,-0.1059,-0.106,-0.1058,-0.1063,-0.1063,-0.1069,-0.1073,-0.1076,-0.1084,-0.1083,-0.1091,-0.109,-0.1095,-0.1096,-0.1099,-0.1099,-0.1099,-0.1107,-0.1094,-0.1074,-0.1072,-0.11,-0.11,-0.11,0,-0.1032,-0.1036,-0.1034,-0.1036,-0.1046,-0.1045,-0.1049,-0.1056,-0.1057,-0.1061,-0.1062,-0.1065,-0.1067,-0.107,-0.1078,-0.1083,-0.1076,-0.1085,-0.108,-0.1079,-0.1077,-0.1077,-0.1057,-0.1078,-0.1078,-0.1078,-0.1078,0,-0.1015,-0.1012,-0.1026,-0.1025,-0.1022,-0.1033,-0.103,-0.1035,-0.104,-0.1041,-0.1051,-0.1051,-0.1062,-0.1063,-0.107,-0.1068,-0.1069,-0.1072,-0.1074,-0.1071,-0.1071,-0.1072,-0.1073,-0.1078,-0.1078,-0.1078,-0.1078,0,-0.0992,-0.1002,-0.1001,-0.1011,-0.1013,-0.1011,-0.102,-0.1019,-0.1026,-0.1026,-0.1026,-0.1037,-0.1039,-0.1048,-0.1052,-0.1056,-0.1052,-0.1056,-0.1051,-0.1052,-0.1046,-0.1046,-0.1025,-0.1023,-0.1046,-0.1046,-0.1045,0,-0.0981,-0.0979,-0.0989,-0.099,-0.0994,-0.0996,-0.0998,-0.1009,-0.101,-0.1017,-0.1016,-0.1019,-0.1022,-0.1025,-0.1033,-0.1036,-0.104,-0.1032,-0.104,-0.1038,-0.104,-0.1039,-0.1039,-0.103,-0.103,-0.1029,-0.1029,0,-0.0959,-0.0964,-0.0966,-0.0971,-0.0973,-0.0977,-0.0982,-0.0982,-0.0994,-0.0996,-0.0999,-0.1001,-0.1006,-0.1009,-0.1014,-0.1018,-0.1026,-0.1027,-0.1026,-0.1023,-0.102,-0.1021,-0.1046,-0.1027,-0.1027,-0.1027,-0.1028,-0.1028,-0.0941,-0.0941,-0.0948,-0.0951,-0.0956,-0.096,-0.096,-0.0967,-0.097,-0.0975,-0.0981,-0.0983,-0.099,-0.0997,-0.1001,-0.1003,-0.1007,-0.1006,-0.1005,-0.1005,-0.1003,-0.102,-0.1004,-0.1004,-0.1004,-0.1004,-0.1004,0,-0.092,-0.0926,-0.0928,-0.0935,-0.0937,-0.0945,-0.0951,-0.0953,-0.0954,-0.096,-0.0963,-0.0967,-0.097,-0.0979,-0.0983,-0.0983,-0.0986,-0.0983,-0.0983,-0.0984,-0.0999,-0.1,-0.098,-0.098,-0.098,-0.098,-0.098,-0.098,-0.0909,-0.0908,-0.0914,-0.0916,-0.0922,-0.0924,-0.0927,-0.0931,-0.0936,-0.094,-0.0943,-0.0949,-0.0956,-0.0961,-0.0964,-0.0967,-0.0968,-0.0964,-0.0967,-0.0981,-0.0983,-0.0985,-0.0986,-0.0964,-0.0964,-0.0952,-0.0952,-0.0952]}]]